Theta_e
324 323 323 323 321 320 321 321 317 311 310 312 311 309 305 307 308 306 306 306 305 305 305 305 304 305 306 305 307 309 311 318 323 325 327 328 330 332 331 329 330 329 329 329 330 331 333 333 333 332 331 331 331 330 329 329 330 332 332 330 329 330 329 324 323 325 328 329 330 331 332 332 335 335 335 335 335 335 334 332 331 332 334 334 334
322 322 322 322 321 320 318 318 317 311 307 307 307 306 304 304 305 304 305 306 304 304 304 304 304 304 304 305 306 305 306 312 315 318 322 326 328 330 328 326 327 329 329 329 328 329 331 332 332 332 332 331 332 331 330 330 330 332 333 332 330 330 331 331 329 328 327 327 328 329 330 331 332 333 334 334 335 336 336 332 329 330 333 334 335
322 321 321 320 319 319 316 313 312 308 305 304 304 304 304 304 304 303 304 306 305 304 304 304 304 305 305 305 305 306 308 309 311 312 313 316 318 320 319 319 322 323 325 326 328 329 330 331 331 332 332 331 331 331 332 332 331 331 331 332 332 331 332 332 331 331 330 328 328 329 330 331 331 332 332 331 330 332 334 333 330 328 330 333 335
321 321 320 319 318 316 313 310 308 306 304 303 304 304 303 303 303 303 304 306 306 304 304 304 304 304 305 305 306 310 312 314 319 320 319 319 319 320 321 321 322 321 321 323 326 329 331 332 331 332 332 331 332 333 333 332 331 331 330 330 330 330 330 330 329 330 331 330 329 329 330 330 331 331 332 331 330 329 330 331 330 328 328 330 334
321 321 320 319 319 316 312 308 305 304 303 303 303 302 303 303 302 303 303 305 307 306 306 307 308 309 310 309 309 312 315 317 322 325 324 325 326 327 328 328 328 327 326 326 327 330 332 332 332 332 333 332 332 333 333 332 331 330 329 329 329 329 329 329 329 330 331 330 330 330 331 331 331 331 331 333 334 334 333 331 331 331 329 328 331
320 320 320 319 319 318 314 309 305 304 304 303 303 302 303 302 302 303 302 305 308 307 312 314 314 316 317 315 315 316 318 319 321 323 324 325 326 327 327 327 328 328 328 327 327 329 331 332 333 333 333 333 332 332 332 332 331 330 329 329 329 328 328 329 329 329 330 331 330 330 330 331 332 332 332 333 334 335 335 334 333 333 332 330 330
320 320 319 318 319 318 315 312 307 305 305 305 304 303 303 301 302 303 302 308 311 310 317 318 317 319 319 319 319 319 321 321 320 321 321 321 322 322 323 324 325 326 325 325 326 327 328 330 331 331 332 332 332 331 331 332 331 330 330 329 329 329 328 327 327 327 329 331 331 330 330 330 330 332 334 334 333 333 334 334 334 335 335 335 333
320 320 319 318 317 316 316 315 310 307 308 309 306 304 306 304 303 305 306 312 314 313 318 319 318 319 319 320 321 321 321 321 321 321 321 321 322 322 323 324 326 326 325 325 326 327 327 327 328 330 331 331 331 331 330 331 331 330 330 329 329 330 327 326 325 327 329 329 329 330 332 331 331 331 333 334 333 332 332 332 333 334 335 336 335
320 320 319 318 317 315 316 317 313 309 310 312 309 307 311 309 307 310 312 313 316 317 318 318 318 319 319 320 321 321 321 320 321 321 322 323 323 323 323 324 324 325 325 325 326 327 328 327 327 328 329 329 330 329 329 330 330 330 330 329 329 329 327 326 326 327 328 327 327 329 331 332 332 331 331 333 334 333 332 331 331 331 333 334 334
320 319 319 319 318 317 317 318 315 311 311 312 309 309 312 310 309 314 315 313 316 318 318 318 318 319 319 320 320 321 321 321 321 322 323 323 323 323 323 324 324 325 325 325 326 327 328 328 328 327 327 328 329 329 329 330 331 330 330 330 330 329 328 328 326 326 327 327 326 328 330 331 332 331 330 331 332 331 331 331 332 332 332 332 333
319 319 319 319 319 318 318 318 316 313 312 312 310 311 311 309 309 313 314 313 314 316 317 317 318 319 319 319 320 321 321 322 323 323 323 323 324 324 324 324 324 324 325 325 326 326 327 329 329 329 330 329 329 331 331 330 331 331 330 331 331 330 330 330 328 327 327 327 327 327 329 331 331 330 330 330 330 330 331 331 330 330 332 332 331
319 318 319 319 319 319 318 318 316 314 314 313 313 313 312 309 308 309 312 313 313 315 317 316 317 318 319 318 319 321 321 322 323 323 323 323 323 324 324 324 324 324 324 325 326 326 327 328 328 330 331 329 327 329 332 331 330 330 330 330 330 330 330 330 328 327 327 327 327 326 327 328 328 327 329 330 330 329 329 329 328 329 332 331 328
319 319 319 319 319 319 318 318 317 316 315 312 313 314 311 309 306 304 309 311 312 315 317 316 316 318 318 317 318 320 321 321 322 322 322 323 323 324 324 323 323 324 324 325 325 325 327 326 325 327 328 329 329 329 331 331 330 330 329 329 329 330 330 329 328 328 328 328 326 326 325 325 325 324 326 330 330 326 326 327 327 327 330 328 325
319 319 319 318 319 319 318 317 317 316 314 310 311 310 307 309 305 302 308 310 311 315 316 316 317 317 318 317 317 319 320 321 321 321 321 322 322 323 322 322 322 323 322 323 324 324 325 324 324 325 324 325 328 329 330 331 330 329 329 329 329 330 330 330 329 328 328 327 325 325 326 326 326 324 325 329 327 324 324 325 326 327 327 327 327
319 319 319 318 318 318 318 317 316 317 314 310 310 307 305 310 307 304 309 310 312 316 315 315 316 317 319 318 317 319 320 320 321 321 321 321 322 322 322 323 322 322 322 322 322 322 323 323 324 325 324 323 323 324 326 327 329 329 330 330 329 329 330 330 329 329 328 327 326 326 327 328 328 326 326 328 327 325 324 325 328 330 330 331 331
319 318 319 319 318 318 318 317 317 317 315 311 312 309 309 314 310 307 310 310 313 316 314 314 316 317 319 319 318 320 320 320 320 321 321 320 320 321 322 323 323 323 324 324 323 322 323 324 323 322 324 324 323 323 324 325 327 329 328 328 327 328 330 330 330 331 330 329 329 329 329 328 328 327 327 328 328 328 328 329 331 332 332 332 331
319 318 318 318 318 318 318 317 316 317 316 314 314 312 313 315 311 309 311 309 313 316 314 314 316 316 318 318 319 319 319 319 319 319 321 321 321 321 322 322 322 322 323 323 323 323 322 323 324 322 323 325 325 324 326 326 326 326 326 327 327 328 330 329 329 330 330 330 330 329 329 328 328 328 327 327 327 326 327 330 332 332 332 332 331
319 318 318 318 318 318 318 317 316 316 316 315 315 314 313 314 312 311 311 308 312 316 314 315 316 316 317 317 318 319 319 319 319 319 320 320 321 322 321 321 321 321 322 322 322 322 322 322 324 324 324 325 325 325 325 325 325 326 326 326 326 327 328 328 328 328 328 329 329 328 329 329 328 329 329 328 328 328 328 329 330 330 331 332 332
319 318 318 318 317 317 317 317 316 315 316 315 314 313 313 313 311 311 311 309 313 316 314 314 315 316 317 317 317 318 318 318 319 319 319 320 320 320 321 321 321 321 321 322 322 322 322 321 321 323 324 324 324 323 324 324 324 325 325 323 324 326 326 326 326 327 327 328 329 328 328 329 329 330 330 329 329 330 330 330 330 330 331 330 327
319 318 318 318 317 317 318 318 316 315 315 314 313 312 312 312 310 310 311 311 312 315 315 314 315 315 316 316 315 316 318 318 319 319 319 320 320 320 321 321 321 321 321 322 322 322 321 320 319 321 323 322 321 320 322 323 323 324 324 323 324 325 326 326 326 327 327 328 328 328 328 329 330 330 331 330 330 331 331 331 331 331 332 331 327
319 318 318 318 318 317 317 317 316 315 314 314 313 312 312 312 310 309 312 311 311 314 315 314 314 315 315 315 315 316 317 318 318 319 320 320 320 320 321 321 321 321 321 322 322 322 322 322 321 321 321 321 320 319 320 321 322 323 323 323 324 325 326 326 326 327 328 328 327 327 328 329 330 331 331 330 329 330 331 332 332 331 331 332 331
319 318 318 318 318 318 317 316 316 315 314 314 313 312 312 311 310 309 311 311 310 312 314 314 314 314 314 315 315 316 316 317 318 319 320 320 320 320 321 321 321 321 321 322 322 321 322 322 321 320 320 320 321 320 320 320 321 322 322 322 324 325 326 326 326 326 326 326 327 326 327 328 329 329 330 329 328 329 331 331 330 329 328 330 332
319 318 318 318 318 318 317 316 316 315 314 314 314 312 312 311 310 310 311 311 309 310 314 314 314 314 314 314 315 316 316 316 318 319 319 319 319 319 320 320 320 320 321 321 320 320 320 320 319 319 320 320 320 319 319 319 319 321 321 322 323 324 325 325 325 325 325 325 325 324 325 326 327 327 327 327 327 328 329 329 328 328 327 327 328
319 318 318 317 317 317 316 315 315 314 313 314 313 312 311 311 311 310 310 310 308 309 312 314 314 314 314 314 314 315 315 316 317 318 318 318 318 318 319 320 320 320 320 320 319 318 318 318 317 318 319 319 318 318 318 318 318 319 320 321 323 323 324 324 323 323 324 325 324 324 325 326 326 327 326 326 327 327 327 328 328 328 326 324 324
319 318 317 317 317 316 315 315 315 314 312 313 312 311 310 311 310 309 310 310 307 307 311 313 313 314 314 314 314 314 314 315 316 316 316 317 317 317 318 318 319 319 318 317 317 316 317 317 316 317 318 318 317 317 317 317 317 317 318 319 321 322 323 323 323 323 323 323 323 324 325 326 326 326 326 326 326 324 324 326 327 327 325 323 321
319 318 317 317 316 316 315 315 314 313 312 312 311 310 310 310 310 310 311 309 304 305 311 312 313 314 313 313 314 314 314 315 315 315 316 316 316 316 316 317 317 318 317 316 315 315 316 316 315 316 316 316 316 316 316 315 315 315 315 316 317 319 321 322 323 323 323 322 322 322 323 324 324 324 324 324 325 324 324 325 326 326 325 325 323
318 318 317 317 316 316 316 316 314 313 312 312 310 309 309 309 310 310 311 308 303 304 310 313 313 314 313 313 313 314 314 315 314 315 315 315 315 315 315 316 316 316 316 316 315 314 314 314 314 314 314 314 314 314 313 313 313 312 312 313 314 316 319 321 321 322 322 322 322 322 322 322 322 322 323 322 323 324 325 325 326 325 325 326 327
318 318 317 317 317 317 317 317 316 314 312 311 310 309 309 309 310 310 309 309 307 306 310 313 313 313 313 313 313 313 314 314 314 314 314 314 314 314 314 315 315 315 315 315 314 314 314 313 312 311 311 311 311 311 310 310 310 310 310 311 312 314 317 318 318 319 319 320 320 320 320 320 320 320 320 321 321 322 323 324 324 325 325 325 326
317 317 317 317 317 317 317 318 317 315 313 312 309 309 310 309 310 310 309 309 310 307 309 312 313 312 313 313 313 312 313 313 313 313 313 313 313 313 314 314 314 313 313 313 313 313 313 312 311 309 308 308 308 308 308 308 308 308 309 309 310 313 315 315 313 313 314 315 317 318 318 318 318 318 319 319 319 320 321 321 322 322 322 323 324
317 317 316 317 316 317 317 318 318 316 313 312 309 309 309 309 310 310 308 309 310 309 310 312 312 311 312 313 313 312 312 313 312 312 312 312 313 312 313 313 312 312 312 312 312 312 312 312 311 309 306 305 305 306 305 305 306 306 306 307 308 310 311 310 308 308 309 311 313 314 314 314 315 316 315 314 314 315 317 319 320 320 320 321 322
317 316 316 317 316 316 317 317 317 316 313 311 309 309 309 309 309 309 308 308 310 310 310 311 311 311 312 312 312 312 312 312 312 311 311 312 312 312 312 311 311 311 311 310 309 310 311 311 309 307 304 303 302 302 302 302 303 303 304 304 305 307 307 306 305 306 307 307 308 310 310 310 310 309 308 308 309 310 311 313 315 317 318 318 320
316 316 316 316 316 316 317 316 316 315 314 312 309 308 310 309 309 308 307 307 309 310 311 311 311 311 311 311 312 312 311 311 312 312 310 310 310 311 311 311 310 310 310 309 306 304 306 309 307 303 301 300 299 299 299 299 300 301 301 302 304 307 306 303 304 306 307 306 305 307 308 306 305 305 305 306 306 307 308 308 309 310 311 313 314
316 315 315 316 316 317 316 316 316 315 313 311 308 309 311 308 306 305 306 308 310 310 310 311 310 311 311 311 311 311 311 311 311 311 311 310 308 308 310 311 310 310 310 309 305 300 300 305 305 301 299 299 299 299 299 299 299 299 300 300 302 304 303 302 303 307 308 307 304 304 304 303 303 302 302 302 303 303 304 305 306 307 307 308 308
316 315 315 316 316 316 316 316 315 314 312 310 308 308 307 304 303 305 307 309 310 309 310 310 310 310 311 311 310 311 311 310 310 310 310 308 305 304 309 311 309 308 309 307 302 298 297 300 301 300 299 300 299 299 299 299 299 300 300 300 301 301 302 302 304 307 308 306 304 303 302 302 302 302 302 301 301 301 301 302 303 304 305 305 305
316 315 315 316 315 316 316 315 314 313 311 308 306 304 304 304 306 307 308 310 310 309 309 309 309 310 310 310 310 309 309 309 309 309 307 304 300 301 306 308 307 306 308 307 303 299 297 299 299 299 300 300 300 299 299 299 299 299 299 299 300 301 301 302 305 307 307 305 303 302 302 302 302 302 302 302 302 302 301 301 301 302 302 303 303
316 315 315 316 315 315 315 314 314 311 308 307 307 306 306 308 309 308 308 309 309 308 308 308 308 309 309 310 309 307 308 309 308 306 303 300 300 300 303 307 308 306 307 308 306 302 298 298 300 299 299 300 299 298 298 297 297 298 298 298 299 300 301 303 305 306 306 305 303 301 301 302 302 302 302 302 303 303 303 303 303 302 302 302 302
316 315 316 316 315 315 314 313 312 308 307 308 308 307 308 309 308 308 308 308 308 308 308 307 307 307 307 309 309 307 307 307 306 304 301 300 301 301 304 308 309 307 307 308 307 304 300 298 299 299 299 298 298 297 297 296 296 296 297 297 297 298 299 301 304 305 305 304 302 300 300 301 301 302 302 302 303 303 303 303 303 303 304 303 303
316 316 316 316 316 315 313 311 309 307 307 308 307 306 308 309 308 308 308 308 308 308 307 307 307 307 306 306 308 308 307 305 302 300 301 300 299 301 305 307 307 307 307 307 307 306 303 301 299 298 297 296 295 295 295 295 295 295 295 296 295 296 297 299 302 304 304 304 301 298 298 299 299 301 302 302 303 303 303 303 303 303 304 304 304
317 317 316 316 315 314 312 310 307 306 308 308 306 306 308 308 308 308 308 308 307 307 306 306 306 306 305 302 303 304 304 302 299 298 299 300 299 300 304 306 306 306 306 306 307 306 305 304 303 301 299 298 296 295 294 293 294 294 294 294 294 294 295 297 299 301 303 304 301 297 296 296 297 298 301 302 302 302 302 303 303 302 303 303 303
317 317 317 316 314 312 311 309 306 306 307 306 304 305 308 308 307 308 308 308 306 306 306 305 303 304 304 302 299 300 300 300 299 298 298 299 299 301 305 306 305 303 303 305 306 306 305 305 304 304 303 302 300 298 295 293 293 293 293 294 294 294 294 294 295 297 300 301 298 295 295 295 295 296 298 300 301 300 301 301 301 300 301 301 302
317 317 317 316 314 312 311 309 308 307 306 304 303 305 309 309 307 308 309 307 304 303 305 304 304 304 304 301 299 299 299 299 299 299 299 299 298 299 303 306 306 305 304 304 305 305 305 304 304 304 303 302 302 300 296 293 293 293 293 293 294 293 293 293 293 294 295 295 293 292 294 294 294 294 295 296 296 297 298 298 297 297 298 298 299
317 316 316 315 313 312 311 310 310 309 306 304 304 306 308 308 308 309 309 305 302 301 302 304 305 304 301 300 300 299 299 299 299 299 299 299 301 301 301 304 306 306 306 305 304 304 304 303 304 303 302 301 301 300 296 294 293 293 293 293 293 293 293 293 293 293 293 292 292 292 293 293 294 294 293 293 293 294 296 295 294 295 295 294 295
316 316 315 314 313 311 310 310 310 309 307 305 305 306 307 307 308 310 308 304 301 302 303 305 304 301 299 299 300 299 299 299 299 300 299 300 303 305 304 303 304 305 305 304 303 302 302 302 303 303 301 300 300 300 297 294 293 293 293 293 293 293 292 293 293 292 293 292 292 293 293 293 294 294 293 294 293 293 293 293 292 293 294 293 292
316 315 314 313 312 311 310 310 310 309 307 306 306 307 307 307 308 310 307 301 300 303 304 303 301 299 299 300 300 300 300 299 299 302 303 302 302 304 304 303 303 303 303 303 302 301 301 301 301 302 300 299 300 300 297 294 292 293 293 293 293 293 292 292 293 292 292 292 292 293 293 293 294 294 293 293 294 293 292 293 292 293 295 293 291
316 315 314 313 312 311 310 310 310 308 308 306 306 307 307 307 308 309 304 299 300 302 301 300 299 299 299 300 301 301 299 299 300 302 303 303 303 303 303 302 302 302 302 302 301 300 300 299 300 301 299 298 298 298 296 293 292 292 293 293 292 292 292 292 292 292 292 291 292 293 294 293 294 295 294 293 293 292 292 292 292 292 293 292 290
316 315 314 312 312 311 310 310 309 308 307 306 306 307 306 306 309 308 302 299 300 300 299 300 301 300 299 300 301 301 299 299 301 303 303 303 303 303 301 299 299 299 300 301 301 300 298 297 298 300 298 296 296 296 294 293 292 292 292 292 292 292 292 292 292 292 291 291 292 294 295 293 293 296 295 293 292 291 291 291 291 290 291 291 290
315 316 314 312 312 311 311 310 309 308 307 306 306 306 305 306 308 306 302 301 301 300 299 301 301 300 299 300 302 304 303 301 302 303 304 303 303 304 301 298 297 297 297 298 299 298 296 295 296 297 296 294 294 294 293 292 292 292 292 292 292 292 292 292 292 291 291 291 292 294 295 293 292 294 295 293 292 291 290 291 290 290 291 290 290
315 316 315 313 312 312 311 310 310 308 306 305 305 305 305 305 307 305 303 304 304 301 299 300 300 299 300 300 301 302 303 303 303 303 303 302 302 302 300 297 297 297 296 295 296 295 294 293 294 294 294 293 293 293 292 292 292 292 292 292 291 292 291 291 292 291 291 291 292 294 295 293 291 292 292 291 291 291 290 290 290 290 290 290 289
315 316 316 314 312 312 311 311 310 308 305 304 304 305 305 305 305 304 304 305 305 302 300 301 300 300 302 303 301 300 302 304 304 302 301 299 298 298 298 297 297 297 296 295 294 294 294 294 293 293 293 292 292 292 291 291 291 291 291 291 291 291 291 291 291 291 291 291 292 294 294 293 291 290 290 290 290 290 290 289 289 289 289 289 289
315 316 316 314 313 311 311 311 310 308 305 303 303 304 305 305 304 304 304 305 304 301 301 302 301 301 304 304 303 302 303 304 304 303 301 300 299 298 298 298 298 297 296 295 294 294 294 294 294 293 293 292 292 291 291 291 291 291 291 291 291 291 291 291 291 290 290 291 292 293 293 292 290 290 290 289 289 290 289 289 289 288 288 288 288
315 315 316 315 313 312 311 311 311 309 307 304 303 304 304 304 304 304 303 304 303 301 300 301 301 302 304 304 303 303 303 303 303 303 302 302 301 300 299 300 300 298 297 296 295 295 294 294 294 293 293 292 292 291 291 291 291 291 291 291 291 291 290 290 290 290 290 291 292 292 293 292 290 290 290 289 289 288 288 288 289 288 288 287 287
Wind_Speed
17 17 17 17 15 14 13 11 11 13 13 11 11 10 11 11 11 12 12 11 10 10 11 12 13 12 11 11 8 8 7 8 8 9 10 11 13 15 15 15 15 15 15 14 15 16 18 18 20 21 22 22 22 22 23 22 23 23 22 22 22 22 22 22 22 21 19 20 21 21 21 19 19 20 19 20 21 21 21 21 21 21 22 21 21
16 16 16 16 15 14 14 13 11 12 13 12 11 10 11 11 11 11 11 11 11 11 11 12 13 14 14 14 13 12 10 9 10 11 12 13 14 16 18 18 16 17 16 16 16 16 17 18 19 22 23 24 24 24 24 24 24 24 22 23 23 23 23 21 19 19 20 21 20 19 20 21 22 23 23 24 23 22 23 23 22 21 21 22 23
14 14 14 14 14 13 13 14 12 12 13 12 11 9 9 10 10 10 11 11 12 12 12 12 13 13 13 14 14 14 13 11 10 11 12 14 15 17 18 19 19 19 18 18 18 17 17 18 18 19 22 24 25 26 27 26 25 25 25 25 24 23 23 22 21 20 21 21 19 19 19 18 21 24 26 27 27 27 26 25 25 24 22 23 24
14 14 13 12 12 12 12 13 12 12 12 11 9 8 8 9 9 10 10 11 12 13 14 14 13 13 12 13 13 14 13 11 10 10 11 12 13 13 15 16 17 19 19 19 19 17 17 18 18 18 19 22 25 27 28 28 27 26 26 27 27 25 23 24 24 23 23 23 21 20 19 18 19 21 23 25 26 28 29 28 28 27 25 23 24
15 15 14 13 13 12 12 11 11 11 11 10 9 8 8 8 8 9 10 10 11 14 15 15 14 13 13 13 13 13 13 11 8 8 9 11 11 12 13 14 15 16 17 18 18 17 17 19 20 19 19 20 24 26 27 29 29 28 27 27 28 27 26 25 23 22 23 25 25 22 18 17 19 19 18 19 20 23 26 27 27 28 28 26 25
14 15 15 15 14 13 12 11 11 11 11 11 10 9 8 8 8 8 10 10 11 14 14 14 13 12 13 13 12 13 14 12 9 10 12 13 13 14 15 14 15 16 16 16 16 16 17 20 20 20 19 20 23 24 25 28 29 29 28 27 27 27 26 25 25 23 22 25 27 28 24 20 18 17 17 16 17 19 21 21 24 26 27 27 27
13 14 13 14 13 12 12 10 10 11 11 11 11 10 9 9 9 8 10 9 10 13 12 12 13 10 11 11 11 12 13 14 14 13 13 14 14 15 15 15 16 17 16 15 15 16 17 19 20 19 19 20 22 22 23 26 27 28 28 26 26 26 27 28 28 26 25 25 25 27 28 28 25 23 21 20 18 19 20 19 21 25 24 25 26
11 12 12 12 12 11 11 9 9 11 11 10 11 11 10 10 10 9 10 8 9 12 10 10 11 10 10 9 9 10 10 13 14 13 13 13 15 15 15 16 16 16 15 14 15 16 17 19 20 19 20 20 20 20 22 24 26 27 28 27 26 27 27 29 29 29 28 28 26 25 27 29 31 30 28 26 23 23 25 24 23 22 22 23 25
9 11 11 10 11 10 10 8 8 11 11 9 11 12 10 9 9 9 8 7 8 10 10 9 9 9 9 9 9 10 10 12 13 12 13 14 15 15 15 16 15 15 16 15 15 15 16 18 19 19 20 20 19 20 21 23 26 27 28 28 28 29 28 28 29 30 29 29 29 28 28 28 29 30 30 30 28 27 29 30 27 24 22 23 25
9 9 9 9 9 9 9 8 8 10 11 10 12 12 9 8 9 8 7 8 8 9 10 9 8 7 8 10 11 11 11 12 12 12 13 13 13 13 13 14 14 15 17 15 13 14 16 18 18 19 20 18 18 20 20 22 25 27 27 27 27 29 30 29 30 30 31 32 31 30 29 27 26 27 28 29 28 27 28 30 29 27 27 26 26
8 8 8 8 7 8 7 7 8 9 11 11 12 12 10 9 9 8 8 8 9 9 11 10 7 6 8 10 11 10 10 11 11 11 11 11 11 11 11 12 12 13 15 14 13 15 17 18 18 18 17 16 17 19 20 21 23 24 25 25 27 29 30 31 31 31 31 33 33 32 30 29 29 28 26 26 26 25 26 28 28 28 28 29 30
8 8 7 7 6 6 6 6 7 9 11 11 11 11 10 10 10 9 9 9 11 12 12 13 9 7 7 10 10 9 8 9 11 11 11 11 9 9 8 9 10 11 12 13 14 15 16 16 16 16 14 14 16 17 18 20 21 21 22 23 26 28 29 30 31 31 31 32 32 31 31 32 33 32 28 26 26 26 26 27 29 27 26 28 30
9 11 7 5 4 4 5 6 7 8 10 11 11 11 11 12 12 12 12 11 13 13 12 12 10 8 7 9 9 8 8 9 10 11 11 11 11 12 10 9 9 9 11 12 13 14 14 13 15 16 14 13 14 15 16 20 20 20 21 22 23 26 26 27 29 29 30 31 31 31 32 33 33 32 29 28 28 30 30 29 29 27 26 29 30
9 12 7 5 4 3 4 5 6 7 10 13 13 13 14 14 14 14 13 13 14 14 13 12 10 8 7 9 9 8 9 11 11 11 11 11 12 13 12 11 11 11 11 12 12 13 13 13 14 15 14 14 15 14 14 18 15 15 20 21 22 24 25 26 27 28 29 30 31 31 31 32 31 30 30 31 32 33 33 32 31 29 29 30 31
9 9 6 6 5 2 3 4 6 6 10 14 14 15 15 14 15 15 13 13 14 14 14 12 10 8 7 9 9 9 10 11 11 12 13 13 12 13 13 12 13 12 12 12 12 12 12 12 13 13 13 13 14 14 16 16 13 13 18 20 20 21 23 25 26 27 29 29 30 29 29 30 29 28 29 32 32 32 33 32 32 30 28 28 29
7 7 7 7 5 3 4 4 5 5 9 13 13 16 15 12 15 15 13 13 13 13 15 13 11 10 9 9 9 10 11 11 12 12 13 13 12 13 13 13 14 13 12 13 13 13 13 13 13 12 12 12 12 11 14 14 12 12 15 16 18 21 22 25 26 27 28 28 27 27 27 28 28 27 28 29 29 29 31 32 32 30 28 28 28
7 8 8 7 5 4 3 2 3 3 7 10 11 13 12 12 15 15 13 13 12 13 15 13 12 12 11 11 10 10 11 12 13 13 13 13 12 13 13 12 14 13 12 14 15 15 14 15 15 12 11 12 12 9 10 12 12 13 14 13 15 17 17 18 20 23 25 26 26 26 27 28 28 28 28 28 28 27 28 30 31 29 27 28 28
9 9 8 7 5 4 3 1 2 3 5 7 8 10 11 11 14 13 13 14 13 13 14 11 9 10 12 12 11 11 11 12 13 14 13 13 12 12 13 12 13 13 12 13 14 14 14 15 15 13 10 11 12 10 10 11 12 11 12 12 12 14 15 15 15 17 19 21 24 25 26 27 27 27 29 29 28 27 28 28 29 28 27 27 26
11 10 8 7 5 4 4 2 1 2 4 5 6 8 9 10 12 12 12 13 12 12 14 12 9 7 9 11 10 11 12 11 12 13 13 13 12 12 12 12 13 13 12 13 12 12 13 14 14 14 12 10 11 11 11 11 12 11 11 12 12 11 12 13 14 15 16 17 19 20 21 23 24 26 28 27 26 26 28 27 27 28 26 24 23
12 10 9 8 6 4 4 2 1 2 3 4 5 7 8 9 10 10 11 12 11 11 12 12 11 10 9 9 8 9 12 13 12 12 12 12 12 12 12 12 12 12 12 11 11 11 12 13 12 12 12 11 12 12 11 11 12 12 12 13 13 12 11 13 14 14 15 16 17 16 16 17 19 22 24 24 23 24 25 24 24 25 22 20 22
13 10 9 8 7 5 3 2 1 2 2 2 4 7 7 7 9 9 9 10 9 9 11 12 13 12 9 9 7 7 9 11 12 11 11 12 12 12 12 12 12 11 10 10 10 10 10 11 9 8 10 10 11 11 10 11 11 11 12 12 13 14 13 14 14 14 13 12 13 13 14 14 14 16 18 19 19 19 19 18 19 22 22 21 21
12 10 8 7 7 6 4 4 3 2 2 2 5 7 6 6 8 7 8 9 8 7 9 11 13 12 10 9 7 6 6 7 9 11 11 12 13 13 13 12 12 11 10 9 8 6 6 6 4 6 8 9 9 10 10 10 10 10 10 10 11 13 13 14 15 14 14 12 11 10 11 11 11 13 15 16 17 17 17 17 17 18 20 21 19
12 10 8 7 8 6 5 4 3 3 3 2 4 5 5 5 7 6 7 9 8 6 7 9 13 12 11 9 6 6 7 7 9 11 12 12 13 12 13 13 13 11 9 8 7 7 6 5 6 7 8 9 10 11 10 10 10 10 10 9 9 10 13 15 15 14 14 13 13 11 10 10 9 10 13 14 15 17 18 18 16 14 15 18 17
12 11 9 8 9 7 5 5 4 3 1 2 3 5 5 4 6 6 6 7 7 6 5 6 10 12 11 10 8 7 7 7 9 11 12 13 14 13 12 13 13 11 11 10 10 10 10 10 10 9 9 10 11 12 12 11 11 11 10 10 8 8 12 14 15 15 14 14 14 13 11 11 10 9 10 11 11 13 13 13 13 13 13 15 17
12 12 11 9 9 8 6 5 4 2 1 2 3 4 3 2 6 7 5 6 7 6 5 6 7 10 11 11 10 9 8 8 9 10 11 13 14 14 13 13 12 13 15 14 12 12 13 13 13 12 10 11 12 12 13 12 12 12 11 10 8 7 10 12 13 14 16 16 14 13 11 10 11 11 10 10 9 10 10 9 10 11 10 10 13
12 11 11 9 9 7 6 4 3 2 1 2 2 3 2 2 6 6 4 8 8 5 5 6 6 8 9 10 9 8 9 9 9 9 11 11 12 13 13 13 13 14 16 16 14 14 15 15 15 13 11 11 12 12 13 12 12 12 11 10 8 6 9 13 12 11 13 15 13 12 11 10 10 11 10 10 8 8 8 9 10 10 10 10 11
11 10 10 9 9 7 5 4 3 2 1 2 2 2 2 2 4 3 4 9 8 5 5 6 6 6 7 9 9 8 9 9 9 10 10 10 10 11 12 13 12 12 14 15 15 17 17 15 13 13 12 13 12 11 12 12 13 13 12 11 9 6 8 13 12 9 10 12 12 11 11 12 12 12 12 12 11 10 8 8 9 10 11 12 13
11 11 11 10 9 8 5 3 3 3 2 2 2 2 2 2 2 2 3 6 7 5 5 5 6 5 6 8 10 9 9 9 9 10 10 10 10 11 12 12 12 11 11 13 15 17 19 17 14 14 14 13 13 13 13 14 15 14 13 13 10 8 10 11 10 7 8 10 11 12 13 14 14 13 14 14 14 14 12 10 10 10 11 11 12
12 13 13 12 11 10 7 5 4 4 3 2 2 1 2 1 1 2 3 4 5 5 4 4 5 5 5 6 7 7 8 8 9 9 10 10 10 11 12 12 12 13 12 13 13 14 16 16 14 15 16 15 15 16 16 17 17 16 16 15 12 11 12 11 10 9 7 8 9 10 12 13 14 14 14 15 14 14 15 15 14 14 15 14 14
14 15 16 16 14 12 10 7 6 5 4 3 2 2 3 2 0 1 2 3 4 4 4 4 4 4 5 5 5 6 6 7 8 8 9 10 10 11 12 11 12 13 11 11 10 11 12 12 14 14 16 16 16 17 17 17 16 15 15 14 12 12 12 11 11 12 10 8 8 9 11 12 12 13 13 13 13 13 13 14 15 17 17 18 18
15 16 17 17 16 14 11 9 8 8 5 5 4 4 4 3 2 1 1 1 1 2 4 4 4 4 5 5 5 6 6 6 7 8 8 9 9 10 10 10 11 11 10 10 9 8 9 9 12 14 15 16 17 16 16 15 15 14 14 13 13 12 12 12 13 12 11 10 9 8 11 14 13 13 13 13 13 12 11 11 12 13 15 17 18
14 17 18 17 16 15 12 10 9 9 6 6 6 4 4 4 3 3 2 1 2 3 4 4 4 4 4 5 5 6 6 6 7 8 8 9 8 8 9 10 11 11 11 12 12 10 9 8 10 13 14 16 17 17 16 16 15 14 14 13 12 12 13 13 13 14 13 13 10 9 12 16 17 17 16 15 13 12 11 10 10 9 10 11 13
13 14 18 18 16 15 13 12 10 9 7 7 6 5 6 6 5 4 2 3 3 3 4 4 4 4 5 6 5 5 6 6 6 7 8 9 8 8 9 10 10 10 10 10 11 12 11 8 10 13 15 16 17 18 18 18 17 16 15 13 12 13 13 14 14 15 13 14 15 15 15 17 19 20 19 17 16 14 13 12 11 10 10 9 10
12 10 18 20 17 14 15 13 11 10 9 9 8 8 9 7 4 3 4 4 3 3 4 4 4 5 5 6 5 6 7 6 6 7 7 7 7 8 9 9 8 8 9 10 12 13 13 10 9 13 15 16 18 19 19 19 18 19 17 14 14 15 14 14 16 15 12 15 19 20 20 20 21 23 22 21 19 18 16 15 13 13 12 12 12
14 12 17 21 18 16 16 14 12 12 12 11 9 8 7 5 4 5 5 5 4 3 4 4 5 5 6 6 5 6 7 6 7 7 6 6 7 7 9 9 9 9 8 9 12 14 14 11 10 13 15 16 18 19 19 19 19 19 17 15 16 16 14 14 16 14 13 17 19 20 21 21 22 24 24 24 23 22 20 18 17 16 15 14 15
12 14 18 20 20 18 15 14 13 13 11 9 8 7 6 6 6 5 6 6 5 4 4 4 5 5 5 6 5 5 6 6 6 5 5 7 8 8 9 10 9 9 9 8 10 14 15 13 11 13 15 16 18 18 19 20 19 18 18 17 16 16 14 14 16 15 15 18 20 21 22 22 22 23 23 23 23 23 22 20 18 17 16 16 16
7 15 18 18 18 16 13 13 13 12 9 10 11 9 8 8 7 6 6 6 5 5 4 4 4 4 5 6 5 5 6 6 4 4 6 8 8 8 10 10 9 9 9 8 8 12 14 13 12 13 15 17 18 19 19 20 20 19 18 18 17 16 14 13 15 15 18 20 20 23 23 23 23 23 23 24 24 23 22 21 20 19 19 19 19
9 14 16 16 16 14 11 12 12 11 11 12 12 10 10 9 8 7 7 6 6 5 5 5 5 4 4 6 6 5 5 5 3 5 7 7 7 8 9 9 8 7 8 7 6 9 12 13 12 13 15 17 18 19 19 19 19 19 18 18 18 17 16 13 12 13 16 20 20 21 23 23 24 24 23 24 24 24 24 23 22 22 23 24 23
11 13 15 16 14 12 11 11 11 12 14 14 12 12 10 9 9 9 8 7 7 6 5 6 6 5 4 5 6 6 5 5 4 5 7 6 6 8 9 8 7 6 6 5 6 8 10 13 13 11 13 17 19 19 20 20 19 19 18 18 17 16 16 14 11 11 12 15 18 20 21 22 23 23 22 22 22 23 24 24 25 26 28 29 28
13 14 15 14 14 12 12 12 12 14 15 14 13 13 11 10 10 9 8 9 9 7 6 6 6 6 4 4 5 5 5 5 5 6 7 7 7 7 8 7 6 7 7 7 6 6 7 11 12 10 13 17 19 19 20 20 20 19 19 18 17 17 17 16 14 12 11 12 16 19 21 21 21 20 20 20 21 23 23 23 25 28 29 29 28
14 16 15 14 13 13 13 13 13 14 15 13 13 14 13 11 11 10 9 10 10 9 8 7 6 6 5 4 5 5 5 5 6 6 7 7 8 8 8 6 4 7 9 9 8 6 5 8 9 9 13 16 18 19 20 20 19 19 19 18 18 17 17 17 16 15 14 15 17 19 19 19 19 18 19 20 21 22 22 24 26 26 25 26 27
16 18 17 15 15 15 15 14 14 15 14 13 14 14 13 12 12 11 11 11 10 9 8 8 6 6 6 5 5 4 5 5 5 7 7 7 7 8 8 7 5 6 7 8 8 7 6 6 6 7 11 13 16 18 19 19 19 18 18 18 17 17 16 16 15 15 15 16 18 18 17 17 17 17 18 20 21 23 23 24 25 24 23 25 26
19 19 17 16 15 15 15 15 15 15 14 14 14 14 13 13 12 12 12 12 10 8 8 8 8 8 7 6 5 4 5 5 5 7 7 6 7 6 7 7 7 5 5 6 7 7 6 6 6 6 9 12 15 17 17 18 19 18 17 17 17 16 16 16 16 16 16 16 17 17 16 17 18 19 20 21 22 24 24 24 24 23 24 26 26
20 20 18 17 16 16 16 16 16 16 15 15 15 15 14 13 13 13 13 12 10 10 10 10 9 8 7 7 5 4 4 5 5 6 5 5 6 6 4 5 6 5 4 4 5 6 6 5 5 5 7 9 12 15 17 19 19 17 17 16 16 16 16 16 16 15 15 15 16 16 16 17 19 20 21 21 22 22 22 23 24 23 23 25 27
19 19 19 18 17 17 18 18 17 18 17 16 16 16 15 15 14 15 14 12 11 12 11 9 9 9 8 7 6 4 4 4 5 5 4 2 4 4 2 3 3 3 4 4 4 5 4 4 5 5 6 7 7 12 16 18 17 16 16 15 14 15 15 15 15 15 14 14 14 14 16 18 18 19 20 20 19 19 20 20 21 22 21 24 27
19 20 20 19 17 18 19 19 19 19 18 17 17 17 16 16 16 16 14 12 12 12 10 9 10 9 8 7 6 4 3 4 4 4 3 2 3 1 1 1 1 1 2 3 3 3 3 3 4 4 6 6 6 12 15 16 16 15 14 14 14 14 14 15 14 13 13 13 11 12 16 18 17 17 18 18 17 18 19 19 21 21 21 24 26
20 21 21 20 19 19 20 21 20 20 19 18 18 18 17 17 17 16 14 13 13 12 11 11 11 9 9 9 7 6 4 2 5 5 2 2 3 1 3 2 2 2 1 2 1 2 3 3 3 4 6 6 7 12 14 15 15 15 15 15 15 14 14 14 13 12 13 12 11 13 16 17 16 14 14 15 17 18 19 19 21 22 22 23 25
21 22 23 21 21 21 22 22 22 21 20 19 19 18 18 18 18 17 15 15 14 13 11 12 11 10 10 9 9 9 8 4 4 6 6 5 5 4 3 2 3 3 3 2 2 3 4 5 5 6 7 7 9 12 14 14 15 16 16 17 17 16 15 15 13 14 14 12 11 14 15 15 15 15 14 16 17 18 19 19 21 21 21 23 24
22 23 25 23 22 23 23 24 24 22 20 20 20 19 19 19 19 18 17 17 16 14 12 12 12 11 10 9 9 9 8 7 8 8 6 5 5 4 3 3 3 4 5 4 4 5 6 7 7 7 8 9 10 12 13 14 15 16 16 17 17 16 15 14 14 14 14 11 12 14 14 14 16 16 16 18 18 18 20 20 20 21 22 23 24
23 25 27 26 24 24 25 25 25 23 21 21 21 21 21 20 20 19 19 19 18 16 14 14 13 12 13 12 11 9 8 9 9 9 6 5 5 4 3 3 5 6 6 6 6 6 7 8 9 8 8 9 10 11 12 13 14 15 15 15 15 15 14 14 13 13 12 11 13 14 12 14 16 16 17 18 18 18 20 20 20 21 22 23 24
25 26 28 28 26 25 26 27 26 24 23 22 22 22 22 22 21 20 20 20 19 18 16 16 15 14 14 14 13 11 10 10 10 10 10 8 7 6 5 6 8 7 7 7 7 7 7 8 10 10 9 9 10 11 12 13 13 13 13 13 13 13 13 13 12 11 10 11 13 12 12 13 15 16 16 18 18 18 19 20 20 21 22 23 23
Wind_Direction
125 126 123 123 122 117 114 106 89 79 81 77 69 61 56 58 52 42 34 27 24 16 9 3 358 351 343 338 322 301 283 262 254 264 276 278 269 262 263 267 271 273 276 275 273 272 268 263 258 253 248 246 246 245 244 243 243 243 241 238 238 242 248 250 247 241 243 258 264 259 256 252 251 253 247 244 246 248 248 245 243 240 239 240 239
125 121 116 117 117 113 109 105 95 79 76 73 65 55 50 50 47 43 36 25 18 13 6 359 353 346 338 332 323 316 305 282 265 255 251 253 256 258 263 265 266 269 271 273 274 273 272 270 264 257 252 250 249 247 245 245 244 243 242 240 239 237 240 247 248 245 243 250 261 264 260 255 254 256 255 252 248 247 249 251 252 248 241 238 240
122 114 109 107 105 104 95 91 89 77 72 68 63 54 44 42 36 33 31 20 10 5 1 354 346 339 330 322 317 311 306 297 285 272 261 259 259 259 264 267 265 266 268 270 271 271 270 269 268 263 256 253 251 248 247 246 244 243 243 241 241 238 236 238 239 239 242 245 253 257 256 256 259 261 260 258 254 250 248 250 255 255 248 240 239
127 118 112 107 101 94 83 79 74 68 66 62 61 54 42 36 28 24 23 15 4 359 356 350 344 336 324 314 308 302 298 294 290 295 296 290 285 277 275 274 268 265 263 264 266 268 269 266 266 265 260 257 254 249 247 247 247 246 245 243 243 243 238 235 235 238 240 240 244 250 252 254 258 262 268 271 267 259 254 251 253 256 254 248 243
134 127 123 116 108 96 82 71 60 55 55 55 53 49 44 34 27 21 16 11 1 357 356 352 348 340 330 319 310 304 299 290 272 273 281 280 281 278 277 276 271 266 261 261 263 264 266 265 265 263 261 261 257 252 249 250 250 249 248 245 243 243 242 238 234 237 241 241 240 241 242 244 251 258 270 279 274 264 258 252 251 252 253 252 249
132 129 126 118 112 102 88 71 59 53 50 52 50 47 47 36 31 21 12 12 360 359 359 353 351 343 333 327 323 320 317 315 294 270 261 254 254 255 260 268 272 269 264 265 267 267 268 267 265 265 265 263 257 254 252 251 251 250 250 247 243 243 244 244 238 235 241 245 244 244 241 242 252 261 270 278 275 267 260 254 251 252 253 254 252
131 124 118 113 108 99 88 75 64 61 53 50 47 45 45 37 32 20 17 17 359 2 3 349 349 340 329 331 329 326 322 319 314 302 285 269 265 267 271 278 281 278 275 275 278 278 276 272 270 268 268 264 258 256 256 252 250 250 250 247 243 241 242 245 243 238 239 243 247 250 249 248 252 259 267 276 281 277 269 262 252 244 246 252 252
135 120 112 108 102 92 88 81 65 63 60 51 44 42 40 34 30 23 24 22 0 4 5 346 343 336 325 322 314 311 306 303 307 311 306 296 290 283 280 282 284 287 285 277 276 280 281 280 277 272 268 265 259 257 259 255 251 250 249 245 241 241 241 244 245 241 240 242 243 247 249 248 250 253 259 266 273 278 277 277 272 255 246 249 252
132 118 113 106 97 92 90 87 63 55 61 54 41 42 42 33 32 32 27 20 6 3 1 347 339 331 317 310 310 307 300 297 298 299 299 296 291 283 279 280 284 290 289 281 277 280 284 283 279 277 273 268 262 261 260 255 250 250 249 245 241 240 241 244 248 245 243 245 243 243 246 249 250 253 257 260 262 269 273 278 282 278 269 260 255
130 120 114 108 98 95 90 85 65 46 50 47 34 40 44 31 33 38 28 16 12 6 359 351 341 331 315 315 323 318 311 312 308 302 299 295 292 292 293 292 294 294 293 291 288 286 287 285 281 278 276 271 267 267 264 256 250 250 250 248 245 243 244 247 250 250 248 248 246 246 248 249 251 253 257 260 260 262 266 271 275 278 278 273 265
143 128 118 114 102 94 89 78 62 40 40 36 28 33 33 28 31 32 24 13 16 16 360 350 342 327 325 333 336 328 325 330 331 330 329 321 309 302 298 295 294 295 297 299 293 286 282 279 276 271 269 274 277 274 268 258 252 252 252 250 248 246 248 249 249 251 252 250 249 249 251 251 254 257 261 263 261 261 264 268 271 274 275 274 273
157 140 127 125 113 94 85 67 48 34 33 28 25 28 20 20 22 21 20 9 19 25 360 346 342 325 336 352 350 342 342 345 349 355 356 356 348 333 320 304 292 286 288 287 285 287 287 286 287 282 276 282 288 284 276 265 256 255 256 253 249 247 248 249 250 252 252 250 249 250 251 254 256 257 260 263 262 265 269 270 272 274 273 273 278
165 144 135 130 124 100 82 59 43 34 25 20 22 19 10 13 14 15 14 5 17 21 356 346 343 327 339 360 357 349 351 358 2 4 3 6 7 3 1 345 326 313 303 299 297 298 303 305 303 302 299 295 295 291 280 270 260 255 258 258 253 249 248 250 253 253 250 249 250 252 256 259 259 258 259 262 264 266 269 269 270 271 270 273 279
146 136 143 139 131 113 84 55 42 29 10 10 13 6 4 7 7 11 7 3 17 13 355 350 346 333 336 356 1 354 353 2 7 7 5 7 9 9 9 2 353 345 335 332 326 316 315 312 307 308 309 303 305 308 293 285 282 270 264 261 257 254 253 254 253 252 249 249 252 255 258 260 260 260 260 263 265 266 267 268 269 270 270 272 274
136 139 160 146 139 126 86 47 32 20 0 4 3 359 4 3 2 7 0 3 19 10 354 351 349 344 336 342 356 356 353 358 2 4 5 4 7 9 8 5 0 356 349 343 336 330 329 321 314 316 319 313 311 316 314 310 313 300 281 271 266 262 260 257 254 252 251 251 254 256 258 260 262 263 262 264 267 268 268 267 266 267 269 271 270
158 162 166 148 146 135 98 42 25 15 354 359 356 356 4 358 354 1 357 2 17 8 356 356 355 350 338 339 349 352 354 357 358 2 4 2 5 6 7 8 4 360 356 352 349 348 347 342 337 333 334 335 325 321 326 324 317 310 302 289 273 266 265 260 256 257 258 258 259 259 260 262 263 263 262 265 269 271 269 265 262 263 266 268 268
181 177 171 158 156 141 116 49 31 9 348 357 354 355 2 348 347 357 355 359 15 10 357 358 0 350 340 341 345 348 353 356 355 358 360 359 2 3 2 2 2 359 357 358 359 2 2 1 2 354 342 344 344 339 339 336 327 319 320 311 285 278 283 276 265 266 267 264 264 265 265 265 264 265 265 266 268 270 268 265 263 265 266 266 267
194 186 173 163 165 158 144 95 30 342 341 356 352 354 353 339 345 355 350 355 14 11 352 350 1 357 350 346 344 348 353 354 354 355 357 355 357 1 359 356 356 355 356 358 360 6 11 13 17 12 355 352 356 353 348 349 346 334 333 333 310 297 302 300 288 282 280 273 268 266 266 266 264 264 266 266 266 267 265 262 262 264 263 261 264
199 191 179 170 172 176 172 160 18 344 346 356 351 351 346 339 348 351 343 353 11 8 354 351 349 347 350 345 346 353 353 353 355 355 356 355 355 0 2 357 352 352 357 2 3 7 10 11 17 19 13 10 11 9 7 8 8 3 358 355 344 323 312 311 305 297 292 287 282 277 272 271 270 269 269 270 269 268 268 267 264 265 265 263 268
189 193 191 179 175 178 179 190 346 336 327 341 344 346 346 342 348 348 342 350 5 4 358 355 344 334 332 333 344 1 359 357 358 358 360 1 1 3 6 6 1 356 358 3 5 7 10 11 13 18 19 15 12 15 21 21 20 20 13 6 5 0 345 332 324 314 304 295 291 290 286 285 284 281 279 277 275 274 276 276 271 271 273 270 270
180 192 193 183 182 178 186 221 275 307 309 344 347 345 347 341 346 351 343 345 358 2 1 356 347 343 344 345 353 4 6 2 0 3 5 5 9 9 9 10 7 3 5 10 14 22 32 35 28 17 13 10 6 5 12 19 24 26 21 14 14 13 5 355 350 346 336 316 300 296 296 299 298 291 286 283 280 278 279 283 281 279 278 271 265
179 190 189 186 187 185 206 228 238 263 276 318 337 342 340 334 347 354 339 338 348 2 10 356 339 342 357 2 4 4 5 5 4 10 12 9 13 14 10 12 12 13 18 25 28 37 54 55 31 7 7 7 3 357 359 5 13 20 18 17 22 17 7 2 3 4 2 351 334 319 312 310 304 296 296 296 290 281 278 284 291 292 287 280 276
181 190 189 194 191 192 215 226 238 255 255 277 323 342 331 325 347 352 336 336 343 5 23 360 343 349 356 353 6 17 8 13 17 16 15 14 16 16 11 14 18 18 17 15 8 3 7 6 359 8 11 3 359 1 3 360 2 10 8 8 22 21 8 3 3 5 7 2 352 344 337 333 322 310 312 313 306 297 288 282 287 301 306 299 292
183 189 190 196 187 192 218 224 229 233 227 267 311 333 319 314 335 340 337 335 339 357 20 16 0 353 346 348 10 24 18 27 28 18 19 21 22 21 15 16 22 15 3 1 4 8 11 6 4 12 10 1 3 13 18 15 9 8 6 3 10 25 22 9 360 1 3 1 358 354 350 347 343 337 336 337 338 335 320 298 293 305 311 312 308
186 188 189 194 185 196 225 224 206 192 256 297 321 328 308 301 326 335 343 332 334 348 8 39 25 353 349 2 11 14 20 31 25 16 20 24 24 24 18 16 22 14 3 3 12 21 19 10 11 22 26 21 23 25 24 22 19 14 14 12 6 22 36 21 5 3 1 359 1 0 356 349 342 341 346 351 357 357 338 308 294 299 303 312 318
190 186 188 195 191 210 227 199 174 183 261 294 322 325 304 307 331 343 340 322 330 0 9 24 26 4 3 5 3 14 23 25 23 21 24 24 25 27 21 20 27 24 16 11 10 18 22 17 19 28 37 36 31 27 20 14 15 13 13 17 13 19 39 28 16 14 9 2 358 356 355 349 337 331 336 339 340 342 327 301 284 285 289 290 294
193 192 199 201 199 217 220 176 178 223 243 278 301 310 302 325 343 348 322 322 339 21 24 9 9 18 16 358 358 25 28 21 26 30 29 26 26 30 29 29 33 36 34 26 15 13 13 14 21 23 25 27 22 18 16 12 13 14 12 17 15 20 42 30 16 21 27 14 357 350 349 346 342 336 333 331 331 331 330 320 307 298 294 292 288
189 201 209 209 207 214 212 186 210 236 237 260 267 269 278 305 340 319 313 330 345 10 27 13 0 22 33 5 4 27 29 23 30 32 30 29 29 32 35 35 35 37 45 44 33 20 8 5 20 28 23 22 19 15 20 23 24 24 24 24 20 28 41 28 6 8 28 19 359 346 344 344 344 344 339 334 333 330 326 321 316 309 304 301 298
189 202 204 207 210 206 203 213 230 237 243 249 235 241 264 272 332 303 319 348 348 357 27 26 1 16 39 21 16 30 27 23 28 31 32 32 32 34 35 35 36 35 40 49 49 41 20 1 4 20 22 22 23 20 22 26 25 26 30 29 27 37 38 21 8 14 24 26 6 341 335 335 332 334 335 333 332 330 324 318 311 308 307 304 301
201 204 198 198 202 196 192 205 229 237 234 231 214 214 238 226 220 300 330 6 351 358 25 30 16 18 31 29 26 33 32 27 27 29 33 33 33 37 35 33 36 33 31 39 47 57 46 7 348 1 13 18 22 22 22 22 19 21 27 26 26 36 35 20 20 23 19 28 25 347 325 319 322 331 336 334 334 332 326 320 313 310 309 305 303
209 207 197 194 192 185 180 190 220 232 224 223 223 222 238 229 185 225 264 8 15 29 34 29 28 28 33 39 36 32 34 39 35 27 34 40 36 38 37 31 35 34 22 19 26 49 60 21 347 354 7 14 19 20 20 20 17 17 21 19 23 32 28 19 22 20 8 11 27 3 326 323 337 346 342 340 342 340 334 327 316 310 308 306 305
215 208 198 189 180 178 178 181 204 219 215 221 223 206 211 211 199 220 219 114 71 63 54 39 38 42 44 50 49 42 39 47 44 29 31 40 39 44 44 33 34 35 25 20 21 33 52 30 355 1 13 17 20 23 23 22 21 22 20 18 24 27 20 14 22 25 10 358 7 7 338 334 343 345 339 338 339 338 337 334 328 320 313 309 310
227 204 184 173 170 176 178 175 191 206 204 208 204 187 204 217 220 216 155 105 78 71 72 62 56 58 57 54 56 58 49 47 50 42 37 39 39 51 54 41 34 34 30 26 19 22 37 32 4 8 19 21 24 30 30 27 29 30 23 18 26 28 17 14 27 35 18 352 354 1 352 344 343 342 341 341 336 334 333 328 325 323 318 318 320
235 198 168 165 168 171 170 173 183 189 195 206 203 204 218 221 207 173 129 110 107 99 90 84 77 72 68 63 63 68 60 51 55 55 47 44 48 62 62 47 38 39 29 19 15 18 30 31 9 12 24 28 29 32 30 28 31 32 25 23 31 30 21 24 36 38 13 349 354 2 0 355 350 348 350 350 345 342 338 332 327 322 318 320 318
234 205 170 162 163 166 171 176 180 188 205 218 213 210 214 195 165 156 138 123 123 117 105 99 91 81 77 70 64 73 69 56 54 55 54 56 57 69 73 55 39 42 35 15 10 16 27 31 19 19 30 32 29 29 28 26 29 30 24 26 33 30 26 37 45 35 0 349 357 5 6 2 357 355 357 358 354 349 346 343 339 331 324 321 317
223 185 165 158 162 174 185 186 189 204 215 207 192 187 177 165 165 159 142 135 135 130 119 108 98 94 92 79 68 80 78 64 56 54 61 66 59 62 73 62 38 35 41 27 5 9 27 42 36 29 34 33 26 25 26 23 25 27 25 25 32 31 29 41 46 25 353 348 357 5 9 7 2 359 1 3 1 356 353 351 347 341 334 327 321
174 153 155 157 165 182 196 198 204 212 199 182 185 182 168 168 169 156 148 146 141 132 123 112 105 111 113 95 77 76 76 73 74 69 65 63 58 57 63 59 38 25 38 41 10 5 25 43 47 40 38 34 25 21 22 22 21 23 23 24 28 30 29 39 47 24 352 344 354 3 6 6 6 4 4 5 4 2 1 359 357 354 348 341 334
150 155 163 164 173 190 204 212 213 196 176 182 189 177 167 171 165 158 158 149 140 141 138 128 114 111 125 120 107 98 89 82 85 88 77 64 61 64 62 60 49 28 33 42 23 10 16 22 32 40 38 33 30 24 20 21 21 19 21 22 23 25 27 33 49 40 4 345 350 2 5 5 5 6 5 3 2 4 6 5 5 5 1 358 353
157 162 166 171 186 201 205 211 206 184 179 190 189 172 169 174 166 162 162 154 149 147 147 153 144 127 135 147 139 134 124 108 93 90 85 71 66 70 66 66 62 44 44 49 30 19 11 7 16 25 20 19 24 23 19 20 21 19 20 21 19 21 26 24 33 45 23 352 348 358 5 6 4 3 5 5 4 8 9 8 10 10 8 6 4
156 156 165 180 198 200 197 202 197 186 189 196 187 171 168 175 171 164 166 171 169 156 148 162 156 137 139 156 146 136 127 115 99 88 84 75 72 72 67 62 49 41 58 68 53 36 13 8 14 6 355 0 6 11 14 16 16 15 16 17 16 18 21 19 16 24 22 2 353 357 2 6 4 4 9 11 12 14 14 14 14 11 8 8 6
166 166 170 181 191 189 188 190 188 189 194 196 185 173 170 178 174 166 174 187 186 177 168 156 145 150 168 166 144 129 113 105 98 88 79 71 68 69 73 76 41 27 40 50 53 54 28 18 19 356 348 354 353 357 8 12 10 10 10 10 13 14 15 14 11 12 12 7 3 2 3 4 3 7 15 17 17 17 17 18 16 11 10 11 6
175 179 176 176 180 180 179 180 182 190 194 191 184 177 175 178 174 174 188 195 193 189 175 154 155 181 185 162 140 129 109 97 92 87 79 72 65 55 57 70 62 31 27 27 33 43 32 25 25 358 349 350 344 348 1 8 7 7 6 7 10 11 10 9 9 9 9 9 9 7 6 6 5 10 18 21 20 18 16 17 16 12 12 13 9
182 188 183 177 180 181 179 181 185 190 190 186 182 178 179 182 178 181 194 196 189 178 167 168 185 196 183 160 146 134 114 100 91 82 68 63 71 57 35 47 55 41 28 22 20 29 27 21 24 8 354 351 343 342 354 3 3 3 5 6 7 7 7 7 7 6 6 7 8 6 6 10 11 13 16 21 21 18 13 12 13 13 12 10 9
189 192 188 183 184 185 184 184 188 191 188 187 184 179 182 184 180 188 199 197 184 176 181 195 201 195 181 167 154 136 118 105 93 84 63 44 68 72 37 31 42 38 38 30 16 22 22 15 20 12 2 4 347 333 343 356 358 359 1 2 3 4 3 5 5 4 5 6 5 6 9 16 19 18 18 19 18 15 11 9 10 12 10 6 7
193 192 193 191 188 189 187 186 193 195 189 188 188 184 186 185 184 198 207 199 190 193 198 203 200 192 186 176 162 152 134 118 102 98 97 64 64 74 71 62 57 51 55 41 16 17 11 8 21 5 359 14 344 316 330 346 350 355 359 359 2 3 0 3 4 2 6 9 7 11 17 20 22 20 17 16 13 10 11 10 9 10 9 6 8
196 194 199 196 189 192 192 189 195 198 191 190 192 190 191 189 190 205 210 199 200 205 198 193 197 195 190 178 165 160 148 131 118 106 95 75 67 45 278 76 72 83 84 64 21 360 338 356 30 1 346 2 330 312 329 343 345 352 357 359 6 5 359 3 4 2 11 14 12 22 23 20 22 22 14 10 10 11 13 12 10 12 11 7 9
200 199 205 200 190 194 196 193 198 203 198 194 194 196 197 194 196 207 206 196 203 207 193 193 203 201 193 187 178 180 191 155 121 124 144 138 125 228 284 344 16 348 69 98 321 313 318 345 17 348 336 341 321 320 336 343 343 351 358 2 8 7 3 5 3 6 16 14 17 32 26 14 18 25 14 7 11 14 15 12 10 12 11 5 6
205 203 208 204 193 195 199 197 200 207 206 199 197 199 201 199 201 205 198 192 203 210 201 202 209 204 198 200 193 183 182 184 173 174 187 195 196 232 287 351 13 360 15 25 340 343 352 354 356 344 338 335 325 329 340 344 345 353 359 2 5 6 7 6 4 12 19 13 18 33 24 7 12 22 15 11 13 13 14 12 9 10 9 4 5
208 205 211 211 201 198 201 201 204 210 210 203 199 199 200 201 204 203 195 194 205 211 205 207 210 201 192 199 204 186 170 186 221 223 210 215 235 255 293 343 356 358 9 12 5 5 1 353 351 351 346 339 335 338 343 346 350 356 359 1 2 2 5 8 10 14 14 9 19 27 15 2 10 16 12 11 11 10 10 10 8 8 6 3 4
210 208 212 214 208 202 203 204 206 210 210 205 202 200 201 203 205 202 196 198 208 212 205 205 209 200 191 196 204 197 181 190 221 239 239 239 256 268 289 328 341 347 354 1 7 6 359 351 349 352 353 347 344 346 348 351 355 358 359 359 359 359 0 5 12 13 8 11 22 22 7 0 8 10 7 9 10 7 5 5 6 6 4 3 3
213 210 211 213 211 206 205 204 205 208 208 206 203 202 203 206 206 205 202 204 212 216 209 206 208 203 199 202 202 199 199 197 206 232 249 255 261 263 278 308 319 326 336 350 359 359 356 354 350 349 354 356 353 354 356 355 355 357 357 356 358 359 359 1 5 6 9 18 21 14 2 359 3 5 3 4 6 5 1 1 3 2 2 3 1